Location: Artiguedieu
(43.5000°N, 0.5454°E)
Time: 09:26:57
(UTC+00:00)

Explorer 7 - Pass Details

Date: 02 August 2021
Orbit: 484 x 676 km, 50.3° (Epoch: 22 September)

Event Time Altitude Azimuth Distance (km) Brightness Sun altitude
Rises 10:19:11 0° 298° (WNW) 2,702 10.0 56.0°
Reaches altitude 10° 10:21:22 10° 295° (WNW) 1,838 9.3 56.3°
Maximum altitude 10:25:31 63° 214° (SW) 652 8.2 56.8°
Drops below altitude 10° 10:29:55 10° 134° (SE) 1,951 10.3 57.4°
Sets 10:32:18 0° 131° (SE) 2,886 11.0 57.7°
